Regional Weather Roundup
Issued by NWS

Home | Current Version | Previous Version | Graphics & Text | Print | Product List | Glossary On
Versions: 1 2 3 4 5 6 7 8 9 10 11 12 13 14 15 16 17 18 19 20 21 22 23 24 25 26 27 28 29 30 31 32 33 34 35 36 37 38 39 40 41 42 43 44 45 46 47 48 49 50
000
ASUS44 KMEG 010110
RWRTN
TENNESSEE HOURLY STATE WEATHER ROUNDUP
NATIONAL WEATHER SERVICE MEMPHIS TN
800 PM CDT FRI JUL 31 2015

TNZ002-004-019-021-049-052-054-088>092-010200-
WEST TENNESSEE

CITY           SKY/WX    TMP DP  RH WIND       PRES   REMARKS
MEMPHIS INTL   PTCLDY    86  62  44 N8        30.02R
NWS MEMPHIS      N/A     85 N/A N/A MISG        N/A
JACKSON        CLEAR     82  65  56 N5        30.02R
DYERSBURG        N/A    N/A N/A N/A MISG        N/A
PARIS          CLEAR     75  70  83 CALM      30.03S
LEXINGTON      CLEAR     79  66  65 CALM      30.02R
$$

TNZ008-025-027-028-033-062-065-066-010200-
NORTH MIDDLE TENNESSEE

CITY           SKY/WX    TMP DP  RH WIND       PRES   REMARKS
NASHVILLE      FAIR      83  61  47 N8        30.02R
CLARKSVILLE    FAIR      80  67  64 N5        30.01S
SMYRNA         CLEAR     83  66  56 N5        30.02R
CROSSVILLE     CLEAR     74  59  59 NW3       30.08S
$$

TNZ061-075-076-078-094-096-097-010200-
SOUTH MIDDLE TENNESSEE

CITY           SKY/WX    TMP DP  RH WIND       PRES   REMARKS
FAYETTEVILLE   CLEAR     77  57  50 CALM      30.02R
TULLAHOMA      CLEAR     77  59  53 N3        30.04S
WINCHESTER     CLEAR     75  61  60 CALM      30.03R
MCMINNVILLE    CLEAR     73  64  73 CALM      30.03S
COLUMBIA       CLEAR     82  63  51 N5        30.01R
SHELBYVILLE    CLEAR     79  63  57 CALM      30.03R
$$

TNZ017-018-042-046-047-010200-
NORTHEAST TENNESSEE

CITY           SKY/WX    TMP DP  RH WIND       PRES   REMARKS
TRI CITIES     FAIR      73  59  61 N5        30.03R
ELIZABETHTON   CLEAR     66  59  77 CALM      30.04S
$$

TNZ012-013-036-069-073-074-010200-
CENTRAL EAST TENNESSEE

CITY           SKY/WX    TMP DP  RH WIND       PRES   REMARKS
KNOXVILLE      PTCLDY    79  59  50 N9        30.00S
OAK RIDGE      FAIR      80  61  52 CALM      30.03R
GATLINBURG     CLEAR     75  59  57 CALM      30.01S
MORRISTOWN     CLEAR     77  61  57 N3        30.04S
$$

TNZ083-085-099-010200-
SOUTHEAST TENNESSEE

CITY           SKY/WX    TMP DP  RH WIND       PRES   REMARKS
CHATTANOOGA    PTCLDY    82  60  47 N8        29.98S
$$

SKY/WX REPORTED AS FAIR MEANS FEW OR NO CLOUDS BELOW
12 THOUSAND FEET.




USA.gov is the U.S. government's official web portal to all federal, state and local government web resources and services.